| time (UTC) | temp F | wind direction | speed MPH | gust MPH | rain 1hr in | rain 24hr in | rain mn in | humidity % | barometer mb |
| 20260506231010 | 44 | 9 | 0.0 | 2.0 | 0.00 | 0.46 | 0.44 | 93 | 1007.0 |
| 20260506230510 | 44 | 11 | 0.0 | 1.0 | 0.00 | 0.46 | 0.44 | 94 | 1007.0 |
| 20260506230009 | 44 | 11 | 0.0 | 1.0 | 0.00 | 0.46 | 0.44 | 94 | 1007.0 |
| 20260506225511 | 44 | 11 | 0.0 | 1.0 | 0.00 | 0.46 | 0.44 | 93 | 1007.0 |
| 20260506225010 | 44 | 10 | 0.0 | 3.0 | 0.00 | 0.46 | 0.44 | 93 | 1007.0 |
| 20260506224509 | 45 | 11 | 0.0 | 2.0 | 0.00 | 0.46 | 0.44 | 93 | 1007.1 |
| 20260506224008 | 45 | 11 | 0.0 | 1.0 | 0.00 | 0.46 | 0.44 | 94 | 1007.3 |
| 20260506223508 | 45 | 11 | 0.0 | 0.0 | 0.00 | 0.46 | 0.44 | 93 | 1007.3 |
| 20260506223009 | 45 | 11 | 0.0 | 0.0 | 0.00 | 0.46 | 0.44 | 94 | 1007.3 |
| 20260506222511 | 45 | 11 | 0.0 | 1.0 | 0.00 | 0.46 | 0.44 | 94 | 1007.3 |
| 20260506222009 | 44 | 11 | 0.0 | 1.0 | 0.00 | 0.46 | 0.44 | 93 | 1007.2 |
| 20260506221507 | 44 | 11 | 0.0 | 1.0 | 0.00 | 0.46 | 0.44 | 93 | 1007.3 |
| 20260506221007 | 44 | 11 | 0.0 | 2.0 | 0.00 | 0.46 | 0.44 | 93 | 1007.3 |
| 20260506220507 | 44 | 11 | 0.0 | 2.0 | 0.00 | 0.46 | 0.44 | 93 | 1007.3 |
| 20260506220007 | 44 | 11 | 0.0 | 2.0 | 0.00 | 0.46 | 0.44 | 93 | 1007.4 |
| 20260506215507 | 45 | 11 | 0.0 | 2.0 | 0.00 | 0.46 | 0.44 | 93 | 1007.3 |
| 20260506215006 | 45 | 11 | 0.0 | 1.0 | 0.00 | 0.46 | 0.44 | 93 | 1007.2 |
| 20260506214507 | 45 | 11 | 0.0 | 2.0 | 0.00 | 0.46 | 0.44 | 94 | 1007.2 |
| 20260506214010 | 44 | 11 | 0.0 | 5.0 | 0.01 | 0.46 | 0.44 | 93 | 1007.3 |
| 20260506213506 | 44 | 24 | 1.0 | 5.0 | 0.01 | 0.46 | 0.44 | 93 | 1007.1 |
| 20260506213010 | 44 | 11 | 0.0 | 4.0 | 0.01 | 0.46 | 0.44 | 94 | 1007.1 |
| 20260506212506 | 45 | 9 | 1.0 | 5.0 | 0.01 | 0.46 | 0.44 | 94 | 1007.1 |
| 20260506212008 | 45 | 33 | 1.0 | 5.0 | 0.01 | 0.46 | 0.44 | 94 | 1007.2 |
| 20260506211505 | 45 | 346 | 0.0 | 3.0 | 0.01 | 0.46 | 0.44 | 94 | 1007.1 |
| 20260506211005 | 45 | 348 | 0.0 | 3.0 | 0.01 | 0.46 | 0.44 | 94 | 1006.9 |
| 20260506210505 | 45 | 345 | 0.0 | 3.0 | 0.02 | 0.46 | 0.44 | 94 | 1006.9 |
| 20260506210005 | 44 | 247 | 0.0 | 2.0 | 0.02 | 0.46 | 0.44 | 94 | 1007.0 |
| 20260506205506 | 44 | 313 | 0.0 | 2.0 | 0.02 | 0.48 | 0.44 | 94 | 1007.1 |
| 20260506205005 | 44 | 324 | 0.0 | 2.0 | 0.02 | 0.48 | 0.44 | 94 | 1007.2 |
| 20260506204504 | 44 | 324 | 0.0 | 2.0 | 0.03 | 0.48 | 0.44 | 94 | 1007.3 |
| 20260506204005 | 44 | 324 | 0.0 | 2.0 | 0.02 | 0.47 | 0.43 | 94 | 1007.3 |
| 20260506203504 | 44 | 324 | 0.0 | 2.0 | 0.02 | 0.47 | 0.43 | 94 | 1007.3 |
| 20260506203004 | 44 | 46 | 1.0 | 2.0 | 0.02 | 0.47 | 0.43 | 94 | 1007.2 |
| 20260506202504 | 44 | 46 | 0.0 | 2.0 | 0.02 | 0.47 | 0.43 | 94 | 1007.1 |
| 20260506202007 | 44 | 46 | 0.0 | 2.0 | 0.02 | 0.47 | 0.43 | 94 | 1007.1 |
| 20260506201503 | 44 | 303 | 0.0 | 3.0 | 0.02 | 0.47 | 0.43 | 94 | 1007.1 |
| 20260506201002 | 44 | 318 | 1.0 | 3.0 | 0.03 | 0.47 | 0.43 | 93 | 1007.1 |
| 20260506200506 | 44 | 202 | 0.0 | 3.0 | 0.02 | 0.46 | 0.42 | 94 | 1007.1 |
| 20260506200003 | 44 | 227 | 1.0 | 4.0 | 0.02 | 0.46 | 0.42 | 94 | 1007.1 |
| 20260506195505 | 44 | 190 | 0.0 | 2.0 | 0.02 | 0.47 | 0.42 | 94 | 1007.0 |
| 20260506195002 | 44 | 184 | 0.0 | 2.0 | 0.02 | 0.47 | 0.42 | 94 | 1007.0 |
| 20260506194503 | 45 | 185 | 0.0 | 3.0 | 0.01 | 0.46 | 0.41 | 94 | 1007.0 |
| 20260506194002 | 45 | 185 | 0.0 | 3.0 | 0.01 | 0.46 | 0.41 | 94 | 1007.0 |
| 20260506193502 | 45 | 95 | 0.0 | 2.0 | 0.01 | 0.46 | 0.41 | 94 | 1006.9 |
| 20260506193006 | 45 | 95 | 0.0 | 2.0 | 0.01 | 0.46 | 0.41 | 94 | 1006.8 |
| 20260506192503 | 45 | 95 | 0.0 | 2.0 | 0.01 | 0.46 | 0.41 | 94 | 1006.7 |
| 20260506192002 | 45 | 49 | 0.0 | 2.0 | 0.01 | 0.46 | 0.41 | 94 | 1006.7 |
| 20260506191501 | 45 | 49 | 0.0 | 2.0 | 0.01 | 0.46 | 0.41 | 94 | 1006.7 |
| 20260506191000 | 45 | 49 | 0.0 | 2.0 | 0.00 | 0.45 | 0.40 | 94 | 1006.7 |
| 20260506190500 | 45 | 75 | 0.0 | 3.0 | 0.00 | 0.45 | 0.40 | 94 | 1006.7 |
| 20260506190101 | 45 | 75 | 1.0 | 3.0 | 0.00 | 0.45 | 0.40 | 94 | 1006.7 |
| 20260506185600 | 44 | 75 | 0.0 | 2.0 | 0.00 | 0.46 | 0.40 | 94 | 1006.8 |
| 20260506185059 | 44 | 75 | 1.0 | 2.0 | 0.00 | 0.46 | 0.40 | 94 | 1006.8 |
| 20260506184559 | 45 | 82 | 0.0 | 2.0 | 0.01 | 0.46 | 0.40 | 94 | 1006.9 |
| 20260506184059 | 45 | 96 | 0.0 | 2.0 | 0.01 | 0.46 | 0.40 | 94 | 1007.0 |
| 20260506183558 | 44 | 96 | 0.0 | 1.0 | 0.01 | 0.46 | 0.40 | 94 | 1007.0 |
| 20260506183105 | 44 | 96 | 0.0 | 1.0 | 0.01 | 0.46 | 0.40 | 94 | 1007.1 |
| 20260506182558 | 44 | 96 | 0.0 | 2.0 | 0.01 | 0.46 | 0.40 | 94 | 1007.2 |
| 20260506182057 | 44 | 96 | 0.0 | 2.0 | 0.01 | 0.46 | 0.40 | 93 | 1007.1 |
| 20260506181559 | 44 | 95 | 0.0 | 4.0 | 0.01 | 0.46 | 0.40 | 94 | 1007.3 |
| 20260506181058 | 44 | 350 | 1.0 | 4.0 | 0.02 | 0.46 | 0.40 | 94 | 1007.3 |
| 20260506180556 | 44 | 355 | 0.0 | 4.0 | 0.02 | 0.46 | 0.40 | 94 | 1007.4 |
| 20260506180056 | 44 | 355 | 0.0 | 4.0 | 0.02 | 0.46 | 0.40 | 94 | 1007.5 |
| 20260506175555 | 44 | 338 | 1.0 | 3.0 | 0.03 | 0.46 | 0.40 | 94 | 1007.4 |
| 20260506175058 | 44 | 122 | 0.0 | 2.0 | 0.03 | 0.46 | 0.40 | 94 | 1007.5 |
| 20260506174556 | 44 | 122 | 0.0 | 2.0 | 0.02 | 0.45 | 0.39 | 94 | 1007.7 |
| 20260506174056 | 44 | 123 | 0.0 | 2.0 | 0.03 | 0.45 | 0.39 | 94 | 1007.7 |
| 20260506173556 | 44 | 123 | 1.0 | 2.0 | 0.03 | 0.45 | 0.39 | 93 | 1007.8 |
| 20260506173057 | 44 | 126 | 0.0 | 2.0 | 0.04 | 0.45 | 0.39 | 94 | 1007.8 |
| 20260506172556 | 44 | 127 | 1.0 | 3.0 | 0.04 | 0.45 | 0.39 | 94 | 1007.9 |
| 20260506172055 | 44 | 98 | 1.0 | 3.0 | 0.05 | 0.45 | 0.39 | 94 | 1007.7 |
| 20260506171558 | 43 | 360 | 0.0 | 3.0 | 0.05 | 0.45 | 0.39 | 94 | 1007.7 |
| 20260506171054 | 43 | 342 | 1.0 | 3.0 | 0.05 | 0.44 | 0.38 | 93 | 1007.8 |
| 20260506170554 | 43 | 341 | 0.0 | 6.0 | 0.06 | 0.44 | 0.38 | 94 | 1007.7 |
| 20260506170056 | 43 | 355 | 1.0 | 6.0 | 0.06 | 0.44 | 0.38 | 93 | 1007.6 |
| 20260506165553 | 43 | 360 | 2.0 | 5.0 | 0.06 | 0.43 | 0.37 | 94 | 1007.5 |
| 20260506165053 | 43 | 30 | 1.0 | 4.0 | 0.07 | 0.43 | 0.37 | 94 | 1007.7 |
| 20260506164559 | 43 | 22 | 1.0 | 4.0 | 0.07 | 0.43 | 0.37 | 94 | 1007.9 |
| 20260506164056 | 43 | 22 | 0.0 | 4.0 | 0.07 | 0.42 | 0.36 | 94 | 1008.0 |
| 20260506163555 | 43 | 12 | 0.0 | 3.0 | 0.08 | 0.42 | 0.36 | 94 | 1008.1 |
| 20260506163103 | 43 | 125 | 0.0 | 3.0 | 0.08 | 0.41 | 0.35 | 94 | 1008.1 |
| 20260506162552 | 43 | 355 | 0.0 | 4.0 | 0.08 | 0.41 | 0.35 | 94 | 1008.2 |
| 20260506162052 | 43 | 5 | 0.0 | 4.0 | 0.08 | 0.40 | 0.34 | 94 | 1008.0 |
| 20260506161603 | 43 | 5 | 0.0 | 4.0 | 0.08 | 0.39 | 0.33 | 93 | 1008.1 |
| 20260506161055 | 43 | 355 | 1.0 | 5.0 | 0.09 | 0.39 | 0.33 | 93 | 1008.2 |
| 20260506160551 | 43 | 152 | 1.0 | 5.0 | 0.09 | 0.38 | 0.32 | 93 | 1008.1 |
| 20260506160050 | 43 | 307 | 0.0 | 5.0 | 0.09 | 0.38 | 0.32 | 93 | 1008.2 |
| 20260506155549 | 43 | 10 | 0.0 | 3.0 | 0.09 | 0.37 | 0.31 | 93 | 1008.2 |
| 20260506155048 | 43 | 355 | 1.0 | 3.0 | 0.08 | 0.36 | 0.30 | 93 | 1008.2 |
| 20260506154607 | 43 | 132 | 1.0 | 3.0 | 0.09 | 0.36 | 0.30 | 93 | 1008.3 |
| 20260506154047 | 43 | 71 | 1.0 | 3.0 | 0.08 | 0.35 | 0.28 | 93 | 1008.3 |
| 20260506153547 | 43 | 242 | 1.0 | 3.0 | 0.08 | 0.34 | 0.28 | 93 | 1008.4 |
| 20260506153046 | 43 | 259 | 0.0 | 2.0 | 0.07 | 0.33 | 0.27 | 93 | 1008.4 |
| 20260506152546 | 43 | 328 | 0.0 | 4.0 | 0.06 | 0.32 | 0.26 | 93 | 1008.4 |
| 20260506152045 | 43 | 113 | 2.0 | 4.0 | 0.06 | 0.32 | 0.26 | 93 | 1008.2 |
| 20260506151544 | 43 | 328 | 1.0 | 4.0 | 0.06 | 0.31 | 0.25 | 93 | 1008.6 |
| 20260506151043 | 43 | 348 | 1.0 | 4.0 | 0.05 | 0.30 | 0.24 | 93 | 1008.5 |
| 20260506150545 | 43 | 5 | 1.0 | 3.0 | 0.04 | 0.28 | 0.23 | 93 | 1008.2 |
| 20260506150047 | 43 | 344 | 1.0 | 3.0 | 0.04 | 0.28 | 0.22 | 93 | 1008.3 |
| 20260506145545 | 43 | 345 | 1.0 | 6.0 | 0.04 | 0.28 | 0.22 | 93 | 1008.1 |
| 20260506145041 | 43 | 113 | 0.0 | 7.0 | 0.05 | 0.28 | 0.22 | 92 | 1008.0 |
| 20260506144548 | 43 | 326 | 1.0 | 7.0 | 0.04 | 0.27 | 0.21 | 92 | 1007.9 |
| 20260506144041 | 43 | 328 | 0.0 | 5.0 | 0.05 | 0.27 | 0.21 | 93 | 1008.1 |
| 20260506143540 | 44 | 350 | 2.0 | 5.0 | 0.04 | 0.26 | 0.20 | 93 | 1008.1 |
| 20260506143040 | 44 | 25 | 1.0 | 5.0 | 0.04 | 0.26 | 0.20 | 93 | 1008.0 |
| 20260506142540 | 44 | 123 | 1.0 | 3.0 | 0.04 | 0.26 | 0.20 | 93 | 1008.0 |
| 20260506142038 | 44 | 27 | 1.0 | 4.0 | 0.03 | 0.25 | 0.19 | 93 | 1008.1 |
| 20260506141538 | 44 | 103 | 1.0 | 5.0 | 0.03 | 0.25 | 0.19 | 93 | 1008.3 |
| 20260506141037 | 44 | 83 | 1.0 | 3.0 | 0.03 | 0.25 | 0.19 | 92 | 1008.2 |
| 20260506140539 | 44 | 14 | 0.0 | 2.0 | 0.03 | 0.24 | 0.18 | 92 | 1008.2 |
| 20260506140052 | 44 | 5 | 1.0 | 3.0 | 0.03 | 0.24 | 0.18 | 92 | 1008.3 |
| 20260506135535 | 44 | 355 | 1.0 | 3.0 | 0.03 | 0.24 | 0.18 | 92 | 1008.2 |
| 20260506135035 | 44 | 22 | 0.0 | 2.0 | 0.03 | 0.23 | 0.17 | 93 | 1008.1 |
| 20260506134538 | 44 | 22 | 0.0 | 2.0 | 0.03 | 0.23 | 0.17 | 92 | 1008.1 |
| 20260506134035 | 44 | 22 | 1.0 | 3.0 | 0.02 | 0.22 | 0.16 | 92 | 1008.0 |
| 20260506133535 | 44 | 22 | 1.0 | 6.0 | 0.03 | 0.22 | 0.16 | 92 | 1008.0 |
| 20260506133044 | 44 | 330 | 0.0 | 6.0 | 0.03 | 0.22 | 0.16 | 92 | 1008.0 |
| 20260506132534 | 44 | 351 | 0.0 | 4.0 | 0.04 | 0.22 | 0.16 | 92 | 1008.1 |
| 20260506132037 | 44 | 5 | 1.0 | 2.0 | 0.04 | 0.22 | 0.16 | 92 | 1008.3 |
| 20260506131536 | 44 | 360 | 1.0 | 2.0 | 0.04 | 0.22 | 0.16 | 92 | 1008.4 |
| 20260506131033 | 44 | 360 | 0.0 | 3.0 | 0.04 | 0.22 | 0.16 | 92 | 1008.4 |
| 20260506130532 | 44 | 5 | 0.0 | 3.0 | 0.04 | 0.21 | 0.15 | 92 | 1008.5 |
| 20260506130032 | 44 | 360 | 0.0 | 3.0 | 0.05 | 0.21 | 0.15 | 92 | 1008.6 |
| 20260506125532 | 44 | 360 | 1.0 | 3.0 | 0.05 | 0.21 | 0.15 | 91 | 1008.5 |
| 20260506125031 | 44 | 360 | 0.0 | 2.0 | 0.04 | 0.20 | 0.14 | 91 | 1008.5 |
| 20260506124530 | 44 | 360 | 0.0 | 3.0 | 0.05 | 0.20 | 0.14 | 91 | 1008.7 |
| 20260506124030 | 44 | 360 | 1.0 | 3.0 | 0.05 | 0.20 | 0.14 | 91 | 1008.6 |
| 20260506123530 | 44 | 25 | 0.0 | 2.0 | 0.04 | 0.19 | 0.13 | 91 | 1008.7 |
| 20260506123030 | 44 | 25 | 0.0 | 5.0 | 0.05 | 0.19 | 0.13 | 91 | 1008.7 |
| 20260506122528 | 44 | 23 | 2.0 | 5.0 | 0.04 | 0.18 | 0.12 | 91 | 1008.6 |
| 20260506122028 | 44 | 64 | 0.0 | 3.0 | 0.04 | 0.18 | 0.12 | 91 | 1008.6 |
| 20260506121529 | 44 | 88 | 0.0 | 3.0 | 0.05 | 0.18 | 0.12 | 90 | 1008.8 |
| 20260506121025 | 45 | 360 | 0.0 | 2.0 | 0.05 | 0.18 | 0.12 | 90 | 1009.1 |
| 20260506120524 | 45 | 52 | 0.0 | 2.0 | 0.04 | 0.17 | 0.11 | 90 | 1009.2 |
| 20260506120034 | 45 | 40 | 0.0 | 1.0 | 0.03 | 0.16 | 0.10 | 90 | 1009.3 |
| 20260506115523 | 45 | 38 | 0.0 | 2.0 | 0.03 | 0.16 | 0.10 | 90 | 1009.3 |
| 20260506115022 | 45 | 40 | 0.0 | 3.0 | 0.04 | 0.16 | 0.10 | 91 | 1009.1 |
| 20260506114521 | 45 | 5 | 0.0 | 3.0 | 0.03 | 0.15 | 0.09 | 91 | 1009.2 |
| 20260506114023 | 46 | 5 | 1.0 | 3.0 | 0.03 | 0.15 | 0.09 | 91 | 1009.3 |
| 20260506113520 | 46 | 5 | 0.0 | 1.0 | 0.03 | 0.15 | 0.09 | 92 | 1009.2 |
| 20260506113019 | 46 | 5 | 0.0 | 1.0 | 0.02 | 0.14 | 0.08 | 92 | 1009.1 |
| 20260506112517 | 46 | 5 | 0.0 | 1.0 | 0.02 | 0.14 | 0.08 | 92 | 1009.0 |
| 20260506112017 | 46 | 5 | 0.0 | 1.0 | 0.02 | 0.14 | 0.08 | 92 | 1008.8 |
| 20260506111517 | 46 | 5 | 0.0 | 1.0 | 0.01 | 0.13 | 0.07 | 92 | 1008.6 |
| 20260506111017 | 46 | 5 | 0.0 | 2.0 | 0.01 | 0.13 | 0.07 | 91 | 1008.4 |
| 20260506110521 | 46 | 5 | 0.0 | 2.0 | 0.01 | 0.13 | 0.07 | 91 | 1008.3 |
| 20260506110016 | 46 | 355 | 0.0 | 2.0 | 0.01 | 0.13 | 0.07 | 91 | 1008.3 |
| 20260506105516 | 46 | 360 | 0.0 | 2.0 | 0.01 | 0.13 | 0.07 | 91 | 1008.2 |
| 20260506105015 | 46 | 360 | 0.0 | 2.0 | 0.00 | 0.12 | 0.06 | 91 | 1008.2 |
| 20260506104515 | 46 | 360 | 0.0 | 2.0 | 0.00 | 0.12 | 0.06 | 90 | 1008.3 |
| 20260506104019 | 46 | 360 | 0.0 | 1.0 | 0.00 | 0.12 | 0.06 | 90 | 1008.4 |
| 20260506103515 | 46 | 360 | 0.0 | 2.0 | 0.00 | 0.12 | 0.06 | 89 | 1008.4 |
| 20260506103014 | 46 | 360 | 0.0 | 2.0 | 0.01 | 0.12 | 0.06 | 89 | 1008.4 |
| 20260506102513 | 46 | 360 | 0.0 | 2.0 | 0.01 | 0.12 | 0.06 | 89 | 1008.2 |
| 20260506102013 | 46 | 360 | 1.0 | 2.0 | 0.01 | 0.12 | 0.06 | 90 | 1008.1 |
| 20260506101512 | 46 | 360 | 0.0 | 2.0 | 0.01 | 0.12 | 0.06 | 90 | 1008.2 |
| 20260506101016 | 46 | 360 | 0.0 | 2.0 | 0.02 | 0.12 | 0.06 | 90 | 1008.5 |
| 20260506100512 | 46 | 360 | 0.0 | 3.0 | 0.02 | 0.12 | 0.06 | 89 | 1008.6 |
| 20260506100020 | 47 | 349 | 0.0 | 5.0 | 0.02 | 0.12 | 0.06 | 90 | 1008.3 |
| 20260506095511 | 47 | 349 | 1.0 | 5.0 | 0.02 | 0.12 | 0.06 | 90 | 1008.2 |
| 20260506095012 | 47 | 350 | 1.0 | 3.0 | 0.02 | 0.12 | 0.06 | 90 | 1008.0 |
| 20260506094510 | 47 | 350 | 1.0 | 2.0 | 0.02 | 0.12 | 0.06 | 90 | 1008.3 |
| 20260506094009 | 47 | 349 | 0.0 | 3.0 | 0.02 | 0.12 | 0.06 | 89 | 1008.3 |
| 20260506093512 | 47 | 349 | 1.0 | 3.0 | 0.02 | 0.12 | 0.06 | 89 | 1008.4 |
| 20260506093009 | 47 | 12 | 1.0 | 3.0 | 0.01 | 0.11 | 0.05 | 89 | 1008.2 |
| 20260506092509 | 48 | 20 | 0.0 | 3.0 | 0.02 | 0.11 | 0.05 | 88 | 1008.6 |
| 20260506092007 | 48 | 10 | 1.0 | 4.0 | 0.02 | 0.11 | 0.05 | 87 | 1008.3 |
| 20260506091504 | 48 | 5 | 1.0 | 4.0 | 0.01 | 0.10 | 0.04 | 86 | 1008.6 |
| 20260506091004 | 48 | 355 | 1.0 | 3.0 | 0.01 | 0.10 | 0.04 | 86 | 1008.4 |
| 20260506090502 | 48 | 355 | 1.0 | 2.0 | 0.01 | 0.10 | 0.04 | 87 | 1008.3 |
| 20260506090004 | 49 | 351 | 0.0 | 4.0 | 0.01 | 0.10 | 0.04 | 88 | 1008.9 |
| 20260506085502 | 48 | 351 | 1.0 | 4.0 | 0.01 | 0.10 | 0.04 | 87 | 1008.5 |
| 20260506085001 | 49 | 58 | 0.0 | 2.0 | 0.01 | 0.10 | 0.04 | 87 | 1008.7 |
| 20260506084501 | 49 | 13 | 0.0 | 3.0 | 0.01 | 0.10 | 0.04 | 88 | 1008.5 |
| 20260506084100 | 49 | 12 | 1.0 | 4.0 | 0.01 | 0.10 | 0.04 | 87 | 1008.3 |
| 20260506083600 | 49 | 355 | 1.0 | 4.0 | 0.01 | 0.10 | 0.04 | 88 | 1008.2 |
| 20260506083101 | 49 | 130 | 0.0 | 3.0 | 0.01 | 0.10 | 0.04 | 88 | 1008.4 |
| 20260506082601 | 49 | 9 | 0.0 | 3.0 | 0.00 | 0.09 | 0.03 | 86 | 1008.4 |
| 20260506082057 | 49 | 9 | 0.0 | 3.0 | 0.00 | 0.09 | 0.03 | 85 | 1008.3 |
| 20260506081600 | 49 | 9 | 1.0 | 3.0 | 0.00 | 0.09 | 0.03 | 84 | 1008.4 |
| 20260506081056 | 49 | 184 | 0.0 | 3.0 | 0.00 | 0.09 | 0.03 | 85 | 1008.4 |
| 20260506080556 | 49 | 192 | 0.0 | 2.0 | 0.00 | 0.09 | 0.03 | 85 | 1008.5 |
| 20260506073053 | 50 | 19 | 1.0 | 3.0 | 0.00 | 0.09 | 0.03 | 83 | 1007.9 |
| 20260506072552 | 50 | 76 | 0.0 | 2.0 | 0.00 | 0.09 | 0.03 | 84 | 1008.4 |
| 20260506072052 | 50 | 64 | 0.0 | 2.0 | 0.00 | 0.09 | 0.03 | 85 | 1008.3 |
| 20260506071651 | 50 | 64 | 1.0 | 2.0 | 0.00 | 0.09 | 0.03 | 85 | 1008.0 |
| 20260506071049 | 50 | 5 | 0.0 | 2.0 | 0.00 | 0.09 | 0.03 | 87 | 1008.4 |
| 20260506070549 | 50 | 5 | 0.0 | 3.0 | 0.00 | 0.09 | 0.03 | 87 | 1008.2 |
| 20260506062046 | 51 | 36 | 1.0 | 6.0 | 0.00 | 0.09 | 0.03 | 89 | 1007.7 |
| 20260506061551 | 51 | 5 | 2.0 | 6.0 | 0.00 | 0.09 | 0.03 | 89 | 1007.7 |
| 20260506061048 | 51 | 360 | 1.0 | 5.0 | 0.00 | 0.09 | 0.03 | 90 | 1008.0 |
| 20260506060546 | 51 | 9 | 1.0 | 3.0 | 0.00 | 0.09 | 0.03 | 91 | 1008.1 |
| 20260506051043 | 52 | 360 | 2.0 | 3.0 | 0.02 | 0.09 | 0.03 | 90 | 1008.1 |
| 20260506050540 | 52 | 5 | 1.0 | 3.0 | 0.03 | 0.09 | 0.03 | 90 | 1008.0 |
| 20260506045042 | 52 | 5 | 0.0 | 2.0 | 0.03 | 0.09 | 0.03 | 90 | 1008.2 |
| 20260506044537 | 52 | 5 | 0.0 | 2.0 | 0.04 | 0.09 | 0.03 | 89 | 1007.9 |
| 20260506044036 | 52 | 360 | 0.0 | 3.0 | 0.04 | 0.09 | 0.03 | 89 | 1007.6 |
| 20260506043535 | 52 | 355 | 1.0 | 4.0 | 0.04 | 0.08 | 0.02 | 89 | 1007.8 |
| 20260506043036 | 52 | 173 | 0.0 | 2.0 | 0.04 | 0.08 | 0.02 | 90 | 1008.0 |
| 20260506042534 | 53 | 173 | 1.0 | 2.0 | 0.03 | 0.07 | 0.01 | 89 | 1007.6 |
| 20260506042032 | 53 | 173 | 0.0 | 3.0 | 0.03 | 0.07 | 0.01 | 89 | 1007.3 |
| 20260506041531 | 53 | 207 | 0.0 | 2.0 | 0.03 | 0.07 | 0.01 | 89 | 1007.2 |
| 20260506041029 | 54 | 207 | 0.0 | 2.0 | 0.02 | 0.06 | 0.00 | 88 | 1007.3 |
| 20260506040528 | 54 | 207 | 0.0 | 2.0 | 0.02 | 0.06 | 0.00 | 86 | 1007.5 |
| 20260506040036 | 55 | 208 | 0.0 | 2.0 | 0.02 | 0.06 | 0.00 | 84 | 1007.4 |
| 20260506035525 | 55 | 209 | 0.0 | 2.0 | 0.02 | 0.06 | 0.06 | 80 | 1007.3 |
| 20260506035026 | 56 | 209 | 0.0 | 2.0 | 0.01 | 0.05 | 0.05 | 79 | 1007.2 |
| 20260506034526 | 56 | 265 | 0.0 | 3.0 | 0.01 | 0.05 | 0.05 | 76 | 1007.1 |
| 20260506034022 | 56 | 265 | 0.0 | 3.0 | 0.00 | 0.04 | 0.04 | 73 | 1007.0 |
| 20260506033522 | 56 | 319 | 0.0 | 4.0 | 0.00 | 0.04 | 0.04 | 73 | 1006.9 |
| 20260506033022 | 56 | 216 | 1.0 | 4.0 | 0.00 | 0.04 | 0.04 | 76 | 1006.9 |
| 20260506032522 | 56 | 65 | 1.0 | 3.0 | 0.00 | 0.04 | 0.04 | 78 | 1006.8 |
| 20260506032021 | 56 | 157 | 1.0 | 2.0 | 0.00 | 0.04 | 0.04 | 77 | 1006.9 |
| 20260506031520 | 56 | 157 | 0.0 | 2.0 | 0.00 | 0.04 | 0.04 | 77 | 1006.8 |
| 20260506031018 | 57 | 158 | 0.0 | 4.0 | 0.00 | 0.04 | 0.04 | 75 | 1006.7 |
| 20260506030522 | 57 | 159 | 1.0 | 4.0 | 0.00 | 0.04 | 0.04 | 73 | 1006.5 |
| 20260506030017 | 58 | 232 | 0.0 | 2.0 | 0.00 | 0.04 | 0.04 | 72 | 1006.6 |
| 20260506025515 | 58 | 232 | 0.0 | 2.0 | 0.00 | 0.04 | 0.04 | 70 | 1006.7 |
| 20260506025013 | 59 | 232 | 1.0 | 4.0 | 0.00 | 0.04 | 0.04 | 67 | 1006.5 |
| 20260506024512 | 59 | 232 | 1.0 | 4.0 | 0.00 | 0.04 | 0.04 | 65 | 1006.4 |
| 20260506024012 | 59 | 257 | 2.0 | 8.0 | 0.00 | 0.04 | 0.04 | 62 | 1006.3 |
| 20260506023514 | 60 | 225 | 2.0 | 8.0 | 0.00 | 0.04 | 0.04 | 61 | 1006.2 |
| 20260506023016 | 60 | 229 | 1.0 | 5.0 | 0.00 | 0.04 | 0.04 | 61 | 1006.1 |
| 20260506022511 | 60 | 235 | 2.0 | 5.0 | 0.00 | 0.04 | 0.04 | 61 | 1006.2 |
| 20260506022016 | 60 | 221 | 1.0 | 4.0 | 0.00 | 0.04 | 0.04 | 62 | 1006.3 |
| 20260506021525 | 60 | 228 | 2.0 | 5.0 | 0.00 | 0.04 | 0.04 | 61 | 1006.4 |
| 20260506021011 | 60 | 228 | 2.0 | 5.0 | 0.00 | 0.04 | 0.04 | 62 | 1006.2 |
| 20260506020510 | 60 | 232 | 2.0 | 6.0 | 0.00 | 0.04 | 0.04 | 64 | 1006.1 |
| 20260506020010 | 61 | 230 | 3.0 | 9.0 | 0.00 | 0.04 | 0.04 | 64 | 1006.0 |
| 20260506015510 | 61 | 236 | 2.0 | 9.0 | 0.00 | 0.04 | 0.04 | 68 | 1006.4 |
| 20260506015017 | 61 | 230 | 1.0 | 6.0 | 0.00 | 0.04 | 0.04 | 71 | 1006.3 |
| 20260506014509 | 61 | 242 | 2.0 | 7.0 | 0.00 | 0.04 | 0.04 | 72 | 1006.3 |
| 20260506014008 | 61 | 237 | 3.0 | 7.0 | 0.00 | 0.04 | 0.04 | 74 | 1006.2 |
| 20260506013507 | 61 | 236 | 2.0 | 4.0 | 0.00 | 0.04 | 0.04 | 80 | 1006.0 |
| 20260506013006 | 61 | 236 | 2.0 | 4.0 | 0.00 | 0.04 | 0.04 | 80 | 1005.7 |
| 20260506012505 | 62 | 224 | 1.0 | 2.0 | 0.00 | 0.04 | 0.04 | 79 | 1005.2 |
| 20260506012003 | 62 | 224 | 0.0 | 2.0 | 0.00 | 0.04 | 0.04 | 78 | 1005.1 |
| 20260506011504 | 62 | 224 | 1.0 | 2.0 | 0.00 | 0.04 | 0.04 | 78 | 1004.9 |
| 20260506011005 | 62 | 224 | 0.0 | 2.0 | 0.00 | 0.04 | 0.04 | 78 | 1004.8 |
| 20260506010505 | 62 | 224 | 0.0 | 2.0 | 0.00 | 0.04 | 0.04 | 78 | 1004.7 |
| 20260506010118 | 62 | 224 | 0.0 | 3.0 | 0.00 | 0.04 | 0.04 | 78 | 1004.5 |
| 20260506005600 | 62 | 224 | 1.0 | 5.0 | 0.00 | 0.04 | 0.04 | 78 | 1004.4 |
| 20260506005100 | 62 | 222 | 1.0 | 3.0 | 0.00 | 0.04 | 0.04 | 78 | 1004.3 |
| 20260506004559 | 62 | 225 | 1.0 | 2.0 | 0.00 | 0.04 | 0.04 | 76 | 1004.2 |
| 20260506004058 | 62 | 225 | 1.0 | 4.0 | 0.00 | 0.04 | 0.04 | 77 | 1004.2 |
| 20260506003557 | 62 | 225 | 1.0 | 5.0 | 0.00 | 0.04 | 0.04 | 76 | 1004.0 |
| 20260506003057 | 62 | 225 | 1.0 | 5.0 | 0.00 | 0.04 | 0.04 | 77 | 1004.0 |
| 20260506002556 | 62 | 227 | 1.0 | 3.0 | 0.00 | 0.04 | 0.04 | 77 | 1003.9 |
| 20260506002057 | 63 | 227 | 1.0 | 3.0 | 0.00 | 0.04 | 0.04 | 77 | 1003.8 |
| 20260506001558 | 63 | 227 | 1.0 | 4.0 | 0.00 | 0.04 | 0.04 | 77 | 1003.6 |
| 20260506001055 | 63 | 126 | 1.0 | 4.0 | 0.00 | 0.04 | 0.04 | 77 | 1003.6 |
| 20260506000555 | 63 | 229 | 0.0 | 5.0 | 0.00 | 0.04 | 0.04 | 78 | 1003.5 |
| 20260506000056 | 63 | 136 | 2.0 | 5.0 | 0.00 | 0.04 | 0.04 | 78 | 1003.6 |
| 20260505235554 | 63 | 231 | 1.0 | 7.0 | 0.00 | 0.04 | 0.04 | 78 | 1003.5 |
| 20260505235057 | 63 | 180 | 1.0 | 7.0 | 0.00 | 0.04 | 0.04 | 77 | 1003.5 |
| 20260505234607 | 63 | 211 | 0.0 | 3.0 | 0.00 | 0.04 | 0.04 | 75 | 1003.4 |
| 20260505234053 | 63 | 211 | 2.0 | 6.0 | 0.00 | 0.04 | 0.04 | 75 | 1003.3 |
| 20260505233557 | 64 | 207 | 2.0 | 6.0 | 0.00 | 0.04 | 0.04 | 76 | 1003.2 |
| 20260505233054 | 64 | 234 | 2.0 | 4.0 | 0.00 | 0.04 | 0.04 | 76 | 1003.3 |
| 20260505232557 | 64 | 234 | 1.0 | 4.0 | 0.00 | 0.04 | 0.04 | 76 | 1003.4 |
| 20260505232053 | 64 | 234 | 2.0 | 4.0 | 0.00 | 0.04 | 0.04 | 75 | 1003.5 |
| 20260505231553 | 64 | 216 | 1.0 | 3.0 | 0.00 | 0.04 | 0.04 | 74 | 1003.5 |